START_TIME,STEP,MOV.,H8,t_acc.,H43,t_acc.,M25,t_acc.,H9,t_acc.
1979-03-11 00:00:27.040 ,3,1,0.,12.0,0.,12.0,0.,12.0,0.,12.0
1979-03-11 00:00:39.040 ,3,1,0.,12.0,0.,12.0,0.,12.0,0.,12.0
1979-03-11 00:00:51.040 ,7,1,0.,12.0,0.,12.0,0.,12.0,0.,12.0
1979-03-11 00:01:03.040 ,7,1,0.,12.0,0.,12.0,0.,12.0,0.,12.0
1979-03-11 00:01:15.040 ,4,1,0.,12.0,0.,12.0,0.,12.0,0.,12.0
1979-03-11 00:01:27.040 ,4,1,0.,12.0,0.,12.0,0.,12.0,0.,12.0
1979-03-11 00:01:39.040 ,0,1,0.,12.0,0.,12.0,0.,12.0,0.,12.0
1979-03-11 00:01:51.040 ,0,1,0.,12.0,0.,12.0,0.,12.0,0.,12.0
1979-03-11 00:02:03.040 ,3,1,0.,12.0,0.,12.0,0.,12.0,0.,12.0
1979-03-11 00:02:15.040 ,3,1,0.,12.0,0.,12.0,0.,12.0,0.,12.0
1979-03-11 00:02:27.040 ,7,1,0.,12.0,0.,12.0,0.,12.0,0.,12.0
1979-03-11 00:02:39.040 ,7,1,0.,12.0,0.,12.0,0.,12.0,0.,12.0
1979-03-11 00:02:51.040 ,4,1,0.,12.0,0.,12.0,0.,12.0,0.,12.0
1979-03-11 00:03:03.040 ,4,1,0.,12.0,0.,12.0,0.,12.0,0.,12.0
1979-03-11 00:03:15.040 ,0,1,0.,12.0,0.,12.0,0.,12.0,0.,12.0
1979-03-11 00:03:27.040 ,0,1,0.,12.0,0.,12.0,0.,12.0,0.,12.0
1979-03-11 00:03:39.040 ,3,1,0.,12.0,0.,12.0,0.,12.0,0.,12.0
1979-03-11 00:03:51.040 ,3,1,0.,12.0,0.,12.0,0.,12.0,0.,12.0
1979-03-11 00:04:03.040 ,7,1,0.,12.0,0.,12.0,0.,12.0,0.,12.0
1979-03-11 00:04:15.040 ,7,1,0.,12.0,0.,12.0,0.,12.0,0.,12.0
1979-03-11 00:04:27.040 ,4,1,0.,12.0,0.,12.0,0.,12.0,0.,12.0
1979-03-11 00:04:39.040 ,4,1,0.,12.0,0.,12.0,0.,12.0,0.,12.0
1979-03-11 00:04:51.040 ,0,1,0.,12.0,0.,12.0,0.,12.0,0.,12.0
1979-03-11 00:05:03.040 ,0,1,0.,12.0,0.,12.0,0.,12.0,0.,12.0
1979-03-11 00:05:15.040 ,3,1,0.,12.0,0.,12.0,0.,12.0,0.,12.0
1979-03-11 00:05:27.040 ,3,1,0.,12.0,0.,12.0,0.,12.0,0.,12.0
1979-03-11 00:05:39.040 ,7,1,0.,12.0,0.,12.0,0.,12.0,0.,12.0
1979-03-11 00:05:51.040 ,7,1,0.,12.0,0.,12.0,0.,12.0,0.,12.0
1979-03-11 00:06:03.040 ,4,1,0.,12.0,0.,12.0,0.,12.0,0.,12.0
1979-03-11 00:06:15.040 ,4,1,0.,12.0,0.,12.0,0.,12.0,0.,12.0
1979-03-11 00:06:27.040 ,0,1,0.,12.0,0.,12.0,0.,12.0,0.,12.0
1979-03-11 00:06:39.040 ,0,1,0.,12.0,0.,12.0,0.,12.0,0.,12.0
1979-03-11 00:06:51.040 ,3,1,0.,12.0,0.,12.0,0.,12.0,0.,12.0
1979-03-11 00:07:03.040 ,3,1,0.,12.0,0.,12.0,0.,12.0,0.,12.0
1979-03-11 00:07:15.040 ,7,1,0.,12.0,0.,12.0,0.,12.0,0.,12.0
1979-03-11 00:07:27.040 ,7,1,0.,12.0,0.,12.0,0.,12.0,0.,12.0
1979-03-11 00:07:39.040 ,4,1,0.,12.0,0.,12.0,0.,12.0,0.,12.0
1979-03-11 00:07:51.040 ,4,1,0.,12.0,0.,12.0,0.,12.0,0.,12.0
1979-03-11 00:08:03.040 ,0,1,0.,12.0,0.,12.0,0.,12.0,0.,12.0
1979-03-11 00:08:15.040 ,0,1,0.,12.0,0.,12.0,0.,12.0,0.,12.0
1979-03-11 00:08:27.040 ,3,1,0.,12.0,0.,12.0,0.,12.0,0.,12.0
1979-03-11 00:08:39.040 ,3,1,0.,12.0,0.,12.0,0.,12.0,0.,12.0
1979-03-11 00:08:51.030 ,7,1,0.,12.0,0.,12.0,0.,12.0,0.,12.0
1979-03-11 00:09:03.030 ,7,1,0.,12.0,0.,12.0,0.,12.0,0.,12.0
1979-03-11 00:09:15.030 ,4,1,0.,12.0,0.,12.0,0.,12.0,0.,12.0
1979-03-11 00:09:27.030 ,4,1,0.,12.0,0.,12.0,0.,12.0,0.,12.0
1979-03-11 00:09:39.030 ,0,1,0.,12.0,0.,12.0,0.,12.0,0.,12.0
1979-03-11 00:09:51.030 ,0,1,0.,12.0,0.,12.0,0.,12.0,0.,12.0
1979-03-11 00:10:03.030 ,3,1,0.,12.0,0.,12.0,0.,12.0,0.,12.0
1979-03-11 00:10:15.030 ,3,1,0.,12.0,0.,12.0,0.,12.0,0.,12.0
1979-03-11 00:10:27.030 ,7,1,0.,12.0,0.,12.0,0.,12.0,0.,12.0
1979-03-11 00:10:39.030 ,7,1,0.,12.0,0.,12.0,0.,12.0,0.,12.0
1979-03-11 00:10:51.030 ,4,1,0.,12.0,0.,12.0,0.,12.0,0.,12.0
1979-03-11 00:11:03.030 ,4,1,0.,12.0,0.,12.0,0.,12.0,0.,12.0
1979-03-11 00:11:15.030 ,0,1,0.,12.0,0.,12.0,0.,12.0,0.,12.0
1979-03-11 00:11:27.030 ,0,1,0.,12.0,0.,12.0,0.,12.0,0.,12.0
1979-03-11 00:11:39.030 ,3,1,0.,12.0,0.,12.0,0.,12.0,0.,12.0
1979-03-11 00:11:51.030 ,3,1,0.,12.0,0.,12.0,0.,12.0,0.,12.0
1979-03-11 00:12:03.030 ,7,1,0.,12.0,0.,12.0,0.,12.0,0.,12.0
1979-03-11 00:12:15.030 ,7,1,0.,12.0,0.,12.0,0.,12.0,0.,12.0
1979-03-11 00:12:27.030 ,4,1,0.,12.0,0.,12.0,0.,12.0,0.,12.0
1979-03-11 00:12:39.030 ,4,1,0.,12.0,0.,12.0,0.,12.0,0.,12.0
1979-03-11 00:12:51.030 ,0,1,0.,12.0,0.,12.0,0.,12.0,0.,12.0
1979-03-11 00:13:03.030 ,0,1,0.,12.0,0.,12.0,0.,12.0,0.,12.0
1979-03-11 00:13:15.030 ,3,1,0.,12.0,0.,12.0,0.,12.0,0.,12.0
1979-03-11 00:13:27.030 ,3,1,0.,12.0,0.,12.0,0.,12.0,0.,12.0
1979-03-11 00:13:39.030 ,7,1,0.,12.0,0.,12.0,0.,12.0,0.,12.0
1979-03-11 00:13:51.030 ,7,1,0.,12.0,0.,12.0,0.,12.0,0.,12.0
1979-03-11 00:14:03.030 ,4,1,0.,12.0,0.,12.0,0.,12.0,0.,12.0
1979-03-11 00:14:15.030 ,4,1,0.,12.0,0.,12.0,0.,12.0,0.,12.0
1979-03-11 00:14:27.030 ,0,1,0.,12.0,0.,12.0,0.,12.0,0.,12.0
1979-03-11 00:14:39.030 ,0,1,0.,12.0,0.,12.0,0.,12.0,0.,12.0
1979-03-11 00:14:51.030 ,3,1,0.,12.0,0.,12.0,0.,12.0,0.,12.0
1979-03-11 00:15:03.030 ,3,1,0.,12.0,0.,12.0,0.,12.0,0.,12.0
1979-03-11 00:15:15.030 ,7,1,0.,12.0,0.,12.0,0.,12.0,0.,12.0
1979-03-11 00:15:27.030 ,7,1,0.,12.0,0.,12.0,0.,12.0,0.,12.0
1979-03-11 00:15:39.030 ,4,1,0.,12.0,0.,12.0,0.,12.0,0.,12.0
1979-03-11 00:15:51.030 ,4,1,0.,12.0,0.,12.0,0.,12.0,0.,12.0
1979-03-11 00:16:03.030 ,0,1,0.,12.0,0.,12.0,0.,12.0,0.,12.0
1979-03-11 00:16:15.030 ,0,1,0.,12.0,0.,12.0,0.,12.0,0.,12.0
1979-03-11 00:16:27.030 ,3,1,0.,12.0,0.,12.0,0.,12.0,0.,12.0
1979-03-11 00:16:39.030 ,3,1,0.,12.0,0.,12.0,0.,12.0,0.,12.0
1979-03-11 00:16:51.030 ,7,1,0.,12.0,0.,12.0,0.,12.0,0.,12.0
1979-03-11 00:17:03.030 ,7,1,0.,12.0,0.,12.0,0.,12.0,0.,12.0
1979-03-11 00:17:15.040 ,4,1,0.,12.0,0.,12.0,0.,12.0,0.,12.0
1979-03-11 00:17:27.040 ,4,1,0.,12.0,0.,12.0,0.,12.0,0.,12.0
1979-03-11 00:17:39.040 ,0,1,0.,12.0,0.,12.0,0.,12.0,0.,12.0
1979-03-11 00:17:51.040 ,0,1,0.,12.0,0.,12.0,0.,12.0,0.,12.0
1979-03-11 00:18:03.040 ,3,1,0.,12.0,0.,12.0,0.,12.0,0.,12.0
1979-03-11 00:18:15.040 ,3,1,0.,12.0,0.,12.0,0.,12.0,0.,12.0
1979-03-11 00:18:27.040 ,7,1,0.,12.0,0.,12.0,0.,12.0,0.,12.0
1979-03-11 00:18:39.040 ,7,1,0.,12.0,0.,12.0,0.,12.0,0.,12.0
1979-03-11 00:18:51.040 ,4,1,0.,12.0,0.,12.0,0.,12.0,0.,12.0
1979-03-11 00:19:03.040 ,4,1,0.,12.0,0.,12.0,0.,12.0,0.,12.0
1979-03-11 00:19:15.040 ,0,1,0.,12.0,0.,12.0,0.,12.0,0.,12.0
1979-03-11 00:19:27.040 ,0,1,0.,12.0,0.,12.0,0.,12.0,0.,12.0
1979-03-11 00:19:39.040 ,3,1,0.,12.0,0.,12.0,0.,12.0,0.,12.0
1979-03-11 00:19:51.040 ,3,1,0.,12.0,0.,12.0,0.,12.0,0.,12.0
1979-03-11 00:20:03.040 ,7,1,0.,12.0,0.,12.0,0.,12.0,0.,12.0
1979-03-11 00:20:15.040 ,7,1,0.,12.0,0.,12.0,0.,12.0,0.,12.0
1979-03-11 00:20:27.040 ,4,1,0.,12.0,0.,12.0,0.,12.0,0.,12.0
1979-03-11 00:20:39.040 ,4,1,0.,12.0,0.,12.0,0.,12.0,0.,12.0
1979-03-11 00:20:51.040 ,0,1,0.,12.0,0.,12.0,0.,12.0,0.,12.0
1979-03-11 00:21:03.040 ,0,1,0.,12.0,0.,12.0,0.,12.0,0.,12.0
1979-03-11 00:21:15.040 ,3,1,0.,12.0,0.,12.0,0.,12.0,0.,12.0
1979-03-11 00:21:27.040 ,3,1,0.,12.0,0.,12.0,0.,12.0,0.,12.0
1979-03-11 00:21:39.040 ,7,1,0.,12.0,0.,12.0,0.,12.0,0.,12.0
1979-03-11 00:21:51.040 ,7,1,0.,12.0,0.,12.0,0.,12.0,0.,12.0
1979-03-11 00:22:03.040 ,4,1,0.,12.0,0.,12.0,0.,12.0,0.,12.0
1979-03-11 00:22:15.040 ,4,1,0.,12.0,0.,12.0,0.,12.0,0.,12.0
1979-03-11 00:22:27.040 ,0,1,0.,12.0,0.,12.0,0.,12.0,0.,12.0
1979-03-11 00:22:39.040 ,0,1,0.,12.0,0.,12.0,0.,12.0,0.,12.0
1979-03-11 00:22:51.040 ,3,1,0.,12.0,0.,12.0,0.,12.0,0.,12.0
1979-03-11 00:23:03.040 ,3,1,0.,12.0,0.,12.0,0.,12.0,0.,12.0
1979-03-11 00:23:15.040 ,7,1,0.,12.0,0.,12.0,0.,12.0,0.,12.0
1979-03-11 00:23:27.040 ,7,1,0.,12.0,0.,12.0,0.,12.0,0.,12.0
1979-03-11 00:23:39.040 ,4,1,0.,12.0,0.,12.0,0.,12.0,0.,12.0
1979-03-11 00:23:51.040 ,4,1,0.,12.0,0.,12.0,0.,12.0,0.,12.0
1979-03-11 00:24:03.040 ,0,1,0.,12.0,0.,12.0,0.,12.0,0.,12.0
1979-03-11 00:24:15.040 ,0,1,0.,12.0,0.,12.0,0.,12.0,0.,12.0
1979-03-11 00:24:27.040 ,3,1,0.,12.0,0.,12.0,0.,12.0,0.,12.0
1979-03-11 00:24:39.040 ,3,1,0.,12.0,0.,12.0,0.,12.0,0.,12.0
1979-03-11 00:24:51.040 ,7,1,0.,12.0,0.,12.0,0.,12.0,0.,12.0
1979-03-11 00:25:03.040 ,7,1,0.,12.0,0.,12.0,0.,12.0,0.,12.0
1979-03-11 00:25:15.040 ,4,1,0.,12.0,0.,12.0,0.,12.0,0.,12.0
1979-03-11 00:25:27.040 ,4,1,0.,12.0,0.,12.0,0.,12.0,0.,12.0
1979-03-11 00:25:39.040 ,0,1,0.,12.0,0.,12.0,0.,12.0,0.,12.0
1979-03-11 00:25:51.040 ,0,1,0.,12.0,0.,12.0,0.,12.0,0.,12.0
1979-03-11 00:26:03.040 ,3,1,0.,12.0,0.,12.0,0.,12.0,0.,12.0
1979-03-11 00:26:15.040 ,3,1,0.,12.0,0.,12.0,0.,12.0,0.,12.0
1979-03-11 00:26:27.040 ,7,1,0.,12.0,0.,12.0,0.,12.0,0.,12.0
1979-03-11 00:26:39.040 ,7,1,0.,12.0,0.,12.0,0.,12.0,0.,12.0
1979-03-11 00:26:51.040 ,4,1,0.,12.0,0.,12.0,0.,12.0,0.,12.0
1979-03-11 00:27:03.040 ,4,1,0.,12.0,0.,12.0,0.,12.0,0.,12.0
1979-03-11 00:27:15.040 ,0,1,0.,12.0,0.,12.0,0.,12.0,0.,12.0
1979-03-11 00:27:27.040 ,0,1,0.,12.0,0.,12.0,0.,12.0,0.,12.0
1979-03-11 00:27:39.040 ,3,1,0.,12.0,0.,12.0,0.,12.0,0.,12.0
1979-03-11 00:27:51.040 ,3,1,0.,12.0,0.,12.0,0.,12.0,0.,12.0
1979-03-11 00:28:03.040 ,7,1,0.,12.0,0.,12.0,0.,12.0,0.,12.0
1979-03-11 00:28:15.040 ,7,1,0.,12.0,0.,12.0,0.,12.0,0.,12.0
1979-03-11 00:28:27.040 ,4,1,0.,12.0,0.,12.0,0.,12.0,0.,12.0
1979-03-11 00:28:39.040 ,4,1,0.,12.0,0.,12.0,0.,12.0,0.,12.0
1979-03-11 00:28:51.040 ,0,1,0.,12.0,0.,12.0,0.,12.0,0.,12.0
1979-03-11 00:29:03.040 ,0,1,0.,12.0,0.,12.0,0.,12.0,0.,12.0
1979-03-11 00:29:15.040 ,3,1,0.,12.0,0.,12.0,0.,12.0,0.,12.0
1979-03-11 00:29:27.040 ,3,1,0.,12.0,0.,12.0,0.,12.0,0.,12.0
1979-03-11 00:29:39.040 ,7,1,0.,12.0,0.,12.0,0.,12.0,0.,12.0
1979-03-11 00:29:51.040 ,7,1,0.,12.0,0.,12.0,0.,12.0,0.,12.0
1979-03-11 00:30:03.040 ,4,1,0.,12.0,0.,12.0,0.,12.0,0.,12.0
1979-03-11 00:30:15.040 ,4,1,0.,12.0,0.,12.0,0.,12.0,0.,12.0
1979-03-11 00:30:27.040 ,0,1,0.,12.0,0.,12.0,0.,12.0,0.,12.0
1979-03-11 00:30:39.040 ,0,1,0.,12.0,0.,12.0,0.,12.0,0.,12.0
1979-03-11 00:30:51.040 ,3,1,0.,12.0,0.,12.0,0.,12.0,0.,12.0
1979-03-11 00:31:03.040 ,3,1,0.,12.0,0.,12.0,0.,12.0,0.,12.0
1979-03-11 00:31:15.040 ,7,1,0.,12.0,0.,12.0,0.,12.0,0.,12.0
1979-03-11 00:31:27.040 ,7,1,0.,12.0,0.,12.0,0.,12.0,0.,12.0
1979-03-11 00:31:39.040 ,4,1,0.,12.0,0.,12.0,0.,12.0,0.,12.0
1979-03-11 00:31:51.040 ,4,1,0.,12.0,0.,12.0,0.,12.0,0.,12.0
1979-03-11 00:32:03.040 ,0,1,0.,12.0,0.,12.0,0.,12.0,0.,12.0
1979-03-11 00:32:15.040 ,0,1,0.,12.0,0.,12.0,0.,12.0,0.,12.0
1979-03-11 00:32:27.040 ,3,1,0.,12.0,0.,12.0,0.,12.0,0.,12.0
1979-03-11 00:32:39.040 ,3,1,0.,12.0,0.,12.0,0.,12.0,0.,12.0
1979-03-11 00:32:51.040 ,7,1,0.,12.0,0.,12.0,0.,12.0,0.,12.0
1979-03-11 00:33:03.040 ,7,1,0.,12.0,0.,12.0,0.,12.0,0.,12.0
1979-03-11 00:33:15.040 ,4,1,0.,12.0,0.,12.0,0.,12.0,0.,12.0
1979-03-11 00:33:27.040 ,4,1,0.,12.0,0.,12.0,0.,12.0,0.,12.0
1979-03-11 00:33:39.040 ,0,1,0.,12.0,0.,12.0,0.,12.0,0.,12.0
1979-03-11 00:33:51.040 ,0,1,0.,12.0,0.,12.0,0.,12.0,0.,12.0
1979-03-11 00:34:03.040 ,3,1,0.,12.0,0.,12.0,0.,12.0,0.,12.0
1979-03-11 00:34:15.040 ,3,1,0.,12.0,0.,12.0,0.,12.0,0.,12.0
1979-03-11 00:34:27.040 ,7,1,0.,12.0,0.,12.0,0.,12.0,0.,12.0
1979-03-11 00:34:39.040 ,7,1,0.,12.0,0.,12.0,0.,12.0,0.,12.0
1979-03-11 00:34:51.040 ,4,1,0.,12.0,0.,12.0,0.,12.0,0.,12.0
1979-03-11 00:35:03.040 ,4,1,0.,12.0,0.,12.0,0.,12.0,0.,12.0
1979-03-11 00:35:15.040 ,0,1,0.,12.0,0.,12.0,0.,12.0,0.,12.0
1979-03-11 00:35:27.040 ,0,1,0.,12.0,0.,12.0,0.,12.0,0.,12.0
1979-03-11 00:35:39.040 ,3,1,0.,12.0,0.,12.0,0.,12.0,0.,12.0
1979-03-11 00:35:51.040 ,3,1,0.,12.0,0.,12.0,0.,12.0,0.,12.0
1979-03-11 00:36:03.040 ,7,1,0.,12.0,0.,12.0,0.,12.0,0.,12.0
1979-03-11 00:36:15.040 ,7,1,0.,12.0,0.,12.0,0.,12.0,0.,12.0
1979-03-11 00:36:27.040 ,4,1,0.,12.0,0.,12.0,0.,12.0,0.,12.0
1979-03-11 00:36:39.040 ,4,1,0.,12.0,0.,12.0,0.,12.0,0.,12.0
1979-03-11 00:36:51.040 ,0,1,0.,12.0,0.,12.0,0.,12.0,0.,12.0
1979-03-11 00:37:03.040 ,0,1,0.,12.0,0.,12.0,0.,12.0,0.,12.0
1979-03-11 00:37:15.040 ,3,1,0.,12.0,0.,12.0,0.,12.0,0.,12.0
1979-03-11 00:37:27.040 ,3,1,0.,12.0,0.,12.0,0.,12.0,0.,12.0
1979-03-11 00:37:39.040 ,7,1,0.,12.0,0.,12.0,0.,12.0,0.,12.0
1979-03-11 00:37:51.040 ,7,1,0.,12.0,0.,12.0,0.,12.0,0.,12.0
1979-03-11 00:38:03.040 ,4,1,0.,12.0,0.,12.0,0.,12.0,0.,12.0
1979-03-11 00:38:15.040 ,4,1,0.,12.0,0.,12.0,0.,12.0,0.,12.0
1979-03-11 00:38:27.040 ,0,1,0.,12.0,0.,12.0,0.,12.0,0.,12.0
1979-03-11 00:38:39.040 ,0,1,0.,12.0,0.,12.0,0.,12.0,0.,12.0
1979-03-11 00:38:51.040 ,3,1,0.,12.0,0.,12.0,0.,12.0,0.,12.0
1979-03-11 00:39:03.040 ,3,1,0.,12.0,0.,12.0,0.,12.0,0.,12.0
1979-03-11 00:39:15.040 ,5,0,0.,12.0,1.,12.0,0.,12.0,0.,12.0
1979-03-11 00:39:27.040 ,5,0,0.,12.0,0.,12.0,0.,12.0,0.,12.0
1979-03-11 00:39:39.040 ,6,0,0.,12.0,0.,12.0,0.,12.0,0.,12.0
1979-03-11 00:39:51.040 ,6,0,0.,12.0,0.,12.0,0.,12.0,0.,12.0
1979-03-11 00:40:03.040 ,7,0,0.,12.0,0.,12.0,0.,12.0,0.,12.0
1979-03-11 00:40:15.040 ,7,0,0.,12.0,0.,12.0,0.,12.0,0.,12.0
1979-03-11 00:40:27.040 ,7,0,0.,12.0,0.,12.0,0.,12.0,0.,12.0
1979-03-11 00:40:39.040 ,7,0,0.,12.0,0.,12.0,0.,12.0,0.,12.0
1979-03-11 00:40:51.040 ,6,0,0.,12.0,0.,12.0,0.,12.0,0.,12.0
1979-03-11 00:41:03.040 ,6,0,0.,12.0,0.,12.0,0.,12.0,0.,12.0
1979-03-11 00:41:15.040 ,5,0,0.,12.0,0.,12.0,0.,12.0,0.,12.0
1979-03-11 00:41:27.040 ,5,0,0.,12.0,0.,12.0,0.,12.0,0.,12.0
1979-03-11 00:41:39.040 ,4,0,0.,12.0,0.,12.0,0.,12.0,0.,12.0
1979-03-11 00:41:51.040 ,4,0,0.,12.0,0.,12.0,0.,12.0,0.,12.0
1979-03-11 00:42:03.040 ,3,0,0.,12.0,0.,12.0,0.,12.0,0.,12.0
1979-03-11 00:42:15.040 ,3,0,0.,12.0,0.,12.0,0.,12.0,0.,12.0
1979-03-11 00:42:27.040 ,2,0,0.,12.0,0.,12.0,0.,12.0,0.,12.0
1979-03-11 00:42:39.040 ,2,0,0.,12.0,0.,12.0,0.,12.0,0.,12.0
1979-03-11 00:42:51.040 ,1,0,0.,12.0,0.,12.0,0.,12.0,0.,12.0
1979-03-11 00:43:03.040 ,1,0,0.,12.0,0.,12.0,0.,12.0,0.,12.0
1979-03-11 00:43:15.040 ,0,0,0.,12.0,0.,12.0,0.,12.0,0.,12.0
1979-03-11 00:43:27.040 ,0,0,0.,12.0,0.,12.0,0.,12.0,0.,12.0
1979-03-11 00:43:39.040 ,0,0,0.,12.0,0.,12.0,0.,12.0,0.,12.0
1979-03-11 00:43:51.040 ,0,0,0.,12.0,0.,12.0,0.,12.0,0.,12.0
1979-03-11 00:44:03.040 ,1,0,0.,12.0,0.,12.0,0.,12.0,0.,12.0
1979-03-11 00:44:15.040 ,1,0,0.,12.0,0.,12.0,0.,12.0,0.,12.0
1979-03-11 00:44:27.040 ,2,0,0.,12.0,0.,12.0,0.,12.0,0.,12.0
1979-03-11 00:44:39.040 ,2,0,0.,12.0,0.,12.0,0.,12.0,0.,12.0
1979-03-11 00:44:51.040 ,3,0,0.,12.0,0.,12.0,0.,12.0,0.,12.0
1979-03-11 00:45:03.040 ,3,0,0.,12.0,0.,12.0,0.,12.0,0.,12.0
1979-03-11 00:45:15.040 ,4,0,0.,12.0,0.,12.0,0.,12.0,0.,12.0
1979-03-11 00:45:27.040 ,4,0,0.,12.0,0.,12.0,0.,12.0,0.,12.0
1979-03-11 00:45:39.040 ,5,0,0.,12.0,0.,12.0,0.,12.0,0.,12.0
1979-03-11 00:45:51.040 ,5,0,0.,12.0,0.,12.0,0.,12.0,0.,12.0
1979-03-11 00:46:03.040 ,6,0,0.,12.0,0.,12.0,0.,12.0,0.,12.0
1979-03-11 00:46:15.040 ,6,0,0.,12.0,0.,12.0,0.,12.0,0.,12.0
1979-03-11 00:46:27.040 ,7,0,0.,12.0,0.,12.0,0.,12.0,0.,12.0
1979-03-11 00:46:39.040 ,7,0,0.,12.0,0.,12.0,0.,12.0,0.,12.0
1979-03-11 00:46:51.040 ,7,0,0.,12.0,0.,12.0,0.,12.0,0.,12.0
1979-03-11 00:47:03.040 ,7,0,0.,12.0,0.,12.0,0.,12.0,0.,12.0
1979-03-11 00:47:15.040 ,6,0,0.,12.0,0.,12.0,0.,12.0,0.,12.0
1979-03-11 00:47:27.040 ,6,0,0.,12.0,0.,12.0,0.,12.0,0.,12.0
1979-03-11 00:47:39.040 ,5,0,0.,12.0,0.,12.0,0.,12.0,0.,12.0
1979-03-11 00:47:51.040 ,5,0,0.,12.0,0.,12.0,0.,12.0,0.,12.0
1979-03-11 00:48:03.040 ,4,0,0.,12.0,0.,12.0,0.,12.0,0.,12.0
1979-03-11 00:48:15.040 ,4,0,0.,12.0,0.,12.0,0.,12.0,0.,12.0
1979-03-11 00:48:27.040 ,3,0,0.,12.0,0.,12.0,0.,12.0,0.,12.0
1979-03-11 00:48:39.040 ,3,0,0.,12.0,0.,12.0,0.,12.0,0.,12.0
1979-03-11 00:48:51.040 ,2,0,0.,12.0,0.,12.0,0.,12.0,0.,12.0
1979-03-11 00:49:03.040 ,2,0,0.,12.0,0.,12.0,0.,12.0,0.,12.0
1979-03-11 00:49:15.040 ,1,0,0.,12.0,0.,12.0,0.,12.0,0.,12.0
1979-03-11 00:49:27.040 ,1,0,0.,12.0,0.,12.0,0.,12.0,0.,12.0
1979-03-11 00:49:39.040 ,0,0,0.,12.0,0.,12.0,0.,12.0,0.,12.0
1979-03-11 00:49:51.040 ,0,0,0.,12.0,0.,12.0,0.,12.0,0.,12.0
1979-03-11 00:50:03.040 ,0,0,0.,12.0,0.,12.0,0.,12.0,0.,12.0
1979-03-11 00:50:15.040 ,0,0,0.,12.0,0.,12.0,0.,12.0,0.,12.0
1979-03-11 00:50:27.040 ,1,0,0.,12.0,0.,12.0,0.,12.0,0.,12.0
1979-03-11 00:50:39.040 ,1,0,0.,12.0,0.,12.0,0.,12.0,0.,12.0
1979-03-11 00:50:51.040 ,2,0,0.,12.0,0.,12.0,0.,12.0,0.,12.0
1979-03-11 00:51:03.040 ,2,0,0.,12.0,0.,12.0,0.,12.0,0.,12.0
1979-03-11 00:51:15.040 ,3,0,0.,12.0,0.,12.0,0.,12.0,0.,12.0
1979-03-11 00:51:27.040 ,3,0,0.,12.0,0.,12.0,0.,12.0,0.,12.0
1979-03-11 00:51:39.040 ,4,0,0.,12.0,0.,12.0,0.,12.0,0.,12.0
1979-03-11 00:51:51.040 ,4,0,0.,12.0,0.,12.0,0.,12.0,0.,12.0
1979-03-11 00:52:03.040 ,5,0,0.,12.0,0.,12.0,0.,12.0,0.,12.0
1979-03-11 00:52:15.040 ,5,0,0.,12.0,0.,12.0,0.,12.0,0.,12.0
1979-03-11 00:52:27.040 ,6,0,0.,12.0,0.,12.0,0.,12.0,0.,12.0
1979-03-11 00:52:39.040 ,6,0,0.,12.0,0.,12.0,0.,12.0,0.,12.0
1979-03-11 00:52:51.040 ,7,0,0.,12.0,0.,12.0,0.,12.0,0.,12.0
1979-03-11 00:53:03.040 ,7,0,0.,12.0,0.,12.0,0.,12.0,0.,12.0
1979-03-11 00:53:15.040 ,7,0,0.,12.0,0.,12.0,0.,12.0,0.,12.0
1979-03-11 00:53:27.040 ,7,0,0.,12.0,0.,12.0,0.,12.0,0.,12.0
1979-03-11 00:53:39.040 ,6,0,0.,12.0,0.,12.0,0.,12.0,0.,12.0
1979-03-11 00:53:51.040 ,6,0,0.,12.0,0.,12.0,0.,12.0,0.,12.0
1979-03-11 00:54:03.040 ,5,0,0.,12.0,0.,12.0,0.,12.0,0.,12.0
1979-03-11 00:54:15.040 ,5,0,0.,12.0,0.,12.0,0.,12.0,0.,12.0
1979-03-11 00:54:27.040 ,4,0,0.,12.0,0.,12.0,0.,12.0,0.,12.0
1979-03-11 00:54:39.040 ,4,0,0.,12.0,0.,12.0,0.,12.0,0.,12.0
1979-03-11 00:54:51.040 ,3,0,0.,12.0,0.,12.0,0.,12.0,0.,12.0
1979-03-11 00:55:03.040 ,3,0,0.,12.0,0.,12.0,0.,12.0,0.,12.0
1979-03-11 00:55:15.040 ,2,0,0.,12.0,0.,12.0,0.,12.0,0.,12.0
1979-03-11 00:55:27.040 ,2,0,0.,12.0,0.,12.0,0.,12.0,0.,12.0
1979-03-11 00:55:39.040 ,1,0,0.,12.0,0.,12.0,0.,12.0,0.,12.0
1979-03-11 00:55:51.040 ,1,0,0.,12.0,0.,12.0,0.,12.0,0.,12.0
1979-03-11 00:56:03.040 ,0,0,0.,12.0,0.,12.0,0.,12.0,0.,12.0
1979-03-11 00:56:15.040 ,0,0,0.,12.0,0.,12.0,0.,12.0,0.,12.0
1979-03-11 00:56:27.040 ,0,0,0.,12.0,0.,12.0,0.,12.0,0.,12.0
1979-03-11 00:56:39.040 ,0,0,0.,12.0,0.,12.0,0.,12.0,0.,12.0
1979-03-11 00:56:51.040 ,1,0,0.,12.0,0.,12.0,0.,12.0,0.,12.0
1979-03-11 00:57:03.040 ,1,0,0.,12.0,0.,12.0,0.,12.0,0.,12.0
1979-03-11 00:57:15.040 ,2,0,0.,12.0,0.,12.0,0.,12.0,0.,12.0
1979-03-11 00:57:27.040 ,2,0,0.,12.0,0.,12.0,0.,12.0,0.,12.0
1979-03-11 00:57:39.040 ,3,0,0.,12.0,0.,12.0,0.,12.0,0.,12.0
1979-03-11 00:57:51.040 ,3,0,0.,12.0,0.,12.0,0.,12.0,0.,12.0
1979-03-11 00:58:03.040 ,4,0,0.,12.0,0.,12.0,0.,12.0,0.,12.0
1979-03-11 00:58:15.040 ,4,0,0.,12.0,0.,12.0,0.,12.0,0.,12.0
1979-03-11 00:58:27.040 ,5,0,0.,12.0,0.,12.0,0.,12.0,0.,12.0
1979-03-11 00:58:39.040 ,5,0,0.,12.0,0.,12.0,0.,12.0,0.,12.0
1979-03-11 00:58:51.040 ,6,0,0.,12.0,0.,12.0,0.,12.0,0.,12.0
1979-03-11 00:59:03.040 ,6,0,0.,12.0,0.,12.0,0.,12.0,0.,12.0
1979-03-11 00:59:15.040 ,7,0,0.,12.0,0.,12.0,0.,12.0,0.,12.0
1979-03-11 00:59:27.040 ,7,0,0.,12.0,0.,12.0,0.,12.0,0.,12.0
1979-03-11 00:59:39.040 ,7,0,0.,12.0,0.,12.0,0.,12.0,0.,12.0
1979-03-11 00:59:51.040 ,7,0,0.,12.0,0.,12.0,0.,12.0,0.,12.0
1979-03-11 01:00:03.040 ,6,0,0.,12.0,0.,12.0,0.,12.0,0.,12.0
1979-03-11 01:00:15.040 ,6,0,0.,12.0,0.,12.0,0.,12.0,0.,12.0
1979-03-11 01:00:27.040 ,5,0,0.,12.0,0.,12.0,0.,12.0,0.,12.0
1979-03-11 01:00:39.040 ,5,0,0.,12.0,0.,12.0,0.,12.0,0.,12.0
1979-03-11 01:00:51.040 ,4,0,0.,12.0,0.,12.0,0.,12.0,0.,12.0
1979-03-11 01:01:03.040 ,4,0,0.,12.0,0.,12.0,0.,12.0,0.,12.0
1979-03-11 01:01:15.040 ,3,0,0.,12.0,0.,12.0,0.,12.0,0.,12.0
1979-03-11 01:01:27.040 ,3,0,0.,12.0,0.,12.0,0.,12.0,0.,12.0
1979-03-11 01:01:39.040 ,2,0,0.,12.0,0.,12.0,0.,12.0,0.,12.0
1979-03-11 01:01:51.040 ,2,0,0.,12.0,0.,12.0,0.,12.0,0.,12.0
1979-03-11 01:02:03.040 ,1,0,0.,12.0,0.,12.0,0.,12.0,0.,12.0
1979-03-11 01:02:15.040 ,1,0,0.,12.0,0.,12.0,0.,12.0,0.,12.0
1979-03-11 01:02:27.040 ,0,0,0.,12.0,0.,12.0,0.,12.0,0.,12.0
1979-03-11 01:02:39.040 ,0,0,0.,12.0,0.,12.0,0.,12.0,0.,12.0
1979-03-11 01:02:51.040 ,0,0,0.,12.0,0.,12.0,0.,12.0,0.,12.0
1979-03-11 01:03:03.040 ,0,0,0.,12.0,0.,12.0,0.,12.0,0.,12.0
1979-03-11 01:03:15.040 ,1,0,0.,12.0,0.,12.0,0.,12.0,0.,12.0
1979-03-11 01:03:27.040 ,1,0,0.,12.0,0.,12.0,0.,12.0,0.,12.0
1979-03-11 01:03:39.040 ,2,0,0.,12.0,0.,12.0,0.,12.0,0.,12.0
1979-03-11 01:03:51.040 ,2,0,0.,12.0,0.,12.0,0.,12.0,0.,12.0
1979-03-11 01:04:03.040 ,3,0,0.,12.0,0.,12.0,0.,12.0,0.,12.0
1979-03-11 01:04:15.040 ,3,0,0.,12.0,0.,12.0,0.,12.0,0.,12.0
1979-03-11 01:04:27.040 ,4,0,0.,12.0,0.,12.0,0.,12.0,0.,12.0
1979-03-11 01:04:39.040 ,4,0,0.,12.0,0.,12.0,0.,12.0,0.,12.0
1979-03-11 01:04:51.040 ,5,0,0.,12.0,0.,12.0,0.,12.0,0.,12.0
1979-03-11 01:05:03.040 ,5,0,0.,12.0,0.,12.0,0.,12.0,0.,12.0
1979-03-11 01:05:15.040 ,6,0,0.,12.0,0.,12.0,0.,12.0,0.,12.0
1979-03-11 01:05:27.040 ,6,0,0.,12.0,0.,12.0,0.,12.0,0.,12.0
1979-03-11 01:05:39.040 ,7,0,0.,12.0,0.,12.0,0.,12.0,0.,12.0
1979-03-11 01:05:51.040 ,7,0,0.,12.0,0.,12.0,0.,12.0,0.,12.0
1979-03-11 01:06:03.040 ,7,0,0.,12.0,0.,12.0,0.,12.0,0.,12.0
1979-03-11 01:06:15.040 ,7,0,0.,12.0,0.,12.0,0.,12.0,0.,12.0
1979-03-11 01:06:27.040 ,6,0,0.,12.0,0.,12.0,0.,12.0,0.,12.0
1979-03-11 01:06:39.040 ,6,0,0.,12.0,0.,12.0,0.,12.0,0.,12.0
1979-03-11 01:06:51.040 ,5,0,0.,12.0,0.,12.0,0.,12.0,0.,12.0
1979-03-11 01:07:03.040 ,5,0,0.,12.0,0.,12.0,0.,12.0,0.,12.0
1979-03-11 01:07:15.040 ,4,0,0.,12.0,0.,12.0,0.,12.0,0.,12.0
1979-03-11 01:07:27.040 ,4,0,0.,12.0,0.,12.0,0.,12.0,0.,12.0
1979-03-11 01:07:39.040 ,3,0,0.,12.0,0.,12.0,0.,12.0,0.,12.0
1979-03-11 01:07:51.040 ,3,0,0.,12.0,0.,12.0,0.,12.0,0.,12.0
1979-03-11 01:08:03.040 ,2,0,0.,12.0,0.,12.0,0.,12.0,0.,12.0
1979-03-11 01:08:15.040 ,2,0,0.,12.0,0.,12.0,0.,12.0,0.,12.0
1979-03-11 01:08:27.040 ,1,0,0.,12.0,0.,12.0,0.,12.0,0.,12.0
1979-03-11 01:08:39.040 ,1,0,0.,12.0,0.,12.0,0.,12.0,0.,12.0
1979-03-11 01:08:51.040 ,0,0,0.,12.0,0.,12.0,0.,12.0,0.,12.0
1979-03-11 01:09:03.040 ,0,0,0.,12.0,0.,12.0,0.,12.0,0.,12.0
1979-03-11 01:09:15.040 ,0,0,0.,12.0,0.,12.0,0.,12.0,0.,12.0
1979-03-11 01:09:27.040 ,0,0,0.,12.0,0.,12.0,0.,12.0,0.,12.0
1979-03-11 01:09:39.040 ,1,0,0.,12.0,0.,12.0,0.,12.0,0.,12.0
1979-03-11 01:09:51.040 ,1,0,0.,12.0,0.,12.0,0.,12.0,0.,12.0
1979-03-11 01:10:03.040 ,2,0,0.,12.0,0.,12.0,0.,12.0,0.,12.0
1979-03-11 01:10:15.040 ,2,0,0.,12.0,0.,12.0,0.,12.0,0.,12.0
1979-03-11 01:10:27.040 ,3,0,0.,12.0,0.,12.0,0.,12.0,0.,12.0
1979-03-11 01:10:39.040 ,3,0,0.,12.0,0.,12.0,0.,12.0,0.,12.0
1979-03-11 01:10:51.040 ,4,0,0.,12.0,0.,12.0,0.,12.0,0.,12.0
1979-03-11 01:11:03.040 ,4,0,0.,12.0,0.,12.0,0.,12.0,0.,12.0
1979-03-11 01:11:15.040 ,5,0,0.,12.0,0.,12.0,0.,12.0,0.,12.0
1979-03-11 01:11:27.040 ,5,0,0.,12.0,0.,12.0,0.,12.0,0.,12.0
1979-03-11 01:11:39.040 ,6,0,0.,12.0,0.,12.0,0.,12.0,0.,12.0
1979-03-11 01:11:51.040 ,6,0,0.,12.0,0.,12.0,0.,12.0,0.,12.0
1979-03-11 01:12:03.040 ,7,0,0.,12.0,0.,12.0,0.,12.0,0.,12.0
1979-03-11 01:12:15.040 ,7,0,0.,12.0,0.,12.0,0.,12.0,0.,12.0
1979-03-11 01:12:27.040 ,7,0,0.,12.0,0.,12.0,0.,12.0,0.,12.0
1979-03-11 01:12:39.040 ,7,0,0.,12.0,0.,12.0,0.,12.0,0.,12.0
1979-03-11 01:12:51.040 ,6,0,0.,12.0,0.,12.0,0.,12.0,0.,12.0
1979-03-11 01:13:03.040 ,6,0,0.,12.0,0.,12.0,0.,12.0,0.,12.0
1979-03-11 01:13:15.040 ,5,0,0.,12.0,0.,12.0,0.,12.0,0.,12.0
1979-03-11 01:13:27.040 ,5,0,0.,12.0,0.,12.0,0.,12.0,0.,12.0
1979-03-11 01:13:39.040 ,4,0,0.,12.0,0.,12.0,0.,12.0,0.,12.0
1979-03-11 01:13:51.040 ,4,0,0.,12.0,0.,12.0,0.,12.0,0.,12.0
1979-03-11 01:14:03.040 ,3,0,0.,12.0,0.,12.0,0.,12.0,0.,12.0
1979-03-11 01:14:15.040 ,3,0,0.,12.0,0.,12.0,0.,12.0,0.,12.0
1979-03-11 01:14:27.040 ,2,0,0.,12.0,0.,12.0,0.,12.0,0.,12.0
1979-03-11 01:14:39.040 ,2,0,0.,12.0,0.,12.0,0.,12.0,0.,12.0
1979-03-11 01:14:51.040 ,1,0,0.,12.0,0.,12.0,0.,12.0,0.,12.0
1979-03-11 01:15:03.040 ,1,0,0.,12.0,0.,12.0,0.,12.0,0.,12.0
1979-03-11 01:15:15.040 ,0,0,0.,12.0,0.,12.0,0.,12.0,0.,12.0
1979-03-11 01:15:27.040 ,0,0,0.,12.0,0.,12.0,0.,12.0,0.,12.0
1979-03-11 01:15:39.040 ,0,0,0.,12.0,0.,12.0,0.,12.0,0.,12.0
1979-03-11 01:15:51.040 ,0,0,0.,12.0,0.,12.0,0.,12.0,0.,12.0
1979-03-11 01:16:03.040 ,1,0,0.,12.0,0.,12.0,0.,12.0,0.,12.0
1979-03-11 01:16:15.040 ,1,0,0.,12.0,0.,12.0,0.,12.0,0.,12.0
1979-03-11 01:16:27.040 ,2,0,0.,12.0,0.,12.0,0.,12.0,0.,12.0
1979-03-11 01:16:39.040 ,2,0,0.,12.0,0.,12.0,0.,12.0,0.,12.0
1979-03-11 01:16:51.040 ,3,0,0.,12.0,0.,12.0,0.,12.0,0.,12.0
1979-03-11 01:17:03.040 ,3,0,0.,12.0,0.,12.0,0.,12.0,0.,12.0
1979-03-11 01:17:15.040 ,4,0,0.,12.0,0.,12.0,0.,12.0,0.,12.0
1979-03-11 01:17:27.040 ,4,0,0.,12.0,0.,12.0,0.,12.0,0.,12.0